Wetbulb
45.85 45.69 45.24 46.12 47.57 49.40 49.41 48.99 46.73 42.33 42.69 43.23 44.72 47.02 46.88 47.97 50.73 50.79 48.77 51.11 51.29 51.37 50.77 51.74 51.67 52.75 53.25 54.05 55.13 56.48 56.84 56.82 57.04 57.32 57.48 57.69 58.04 58.05
46.07 45.11 44.87 44.98 45.70 46.39 48.69 48.86 48.45 46.26 42.86 44.59 44.66 45.00 45.35 46.97 48.07 47.78 48.53 48.52 50.49 50.85 50.59 50.41 50.58 50.75 50.87 51.12 51.61 52.17 53.11 54.16 54.75 55.07 55.09 54.76 55.36 55.97
44.80 44.55 44.52 44.56 43.95 44.26 44.93 46.17 46.98 46.96 43.89 45.17 44.73 44.24 42.79 43.22 46.05 48.14 48.31 47.13 48.00 49.59 49.71 49.41 49.76 49.08 48.80 48.62 48.46 48.76 49.51 50.70 51.13 51.53 51.73 51.72 52.55 53.07
43.73 43.66 43.79 45.65 43.46 43.47 43.30 42.94 43.34 43.83 43.13 40.45 41.04 41.41 41.75 42.85 43.20 46.13 47.60 49.02 47.12 48.10 48.18 49.01 49.64 48.76 47.96 47.25 46.41 45.75 45.82 46.99 47.68 48.47 48.92 49.99 50.95 51.89
43.80 43.48 43.49 43.47 42.29 42.11 42.48 42.18 42.33 43.73 41.73 40.30 40.13 40.97 41.60 42.24 42.49 43.51 44.87 47.12 46.53 46.83 47.18 46.74 47.49 48.78 47.48 46.51 45.36 44.39 44.05 44.69 44.76 45.55 46.05 46.88 48.28 49.82
43.97 43.81 43.56 43.37 42.72 42.22 42.46 42.34 42.95 41.68 41.29 40.13 39.49 39.47 39.96 41.28 41.07 39.86 39.71 41.87 43.72 45.71 45.75 44.31 45.02 46.46 47.77 45.74 44.14 43.19 42.59 43.08 43.24 43.14 43.50 43.83 44.40 45.73
43.29 43.64 43.78 43.71 44.48 44.62 43.34 42.09 41.86 40.95 40.37 39.82 38.98 38.93 38.44 38.08 37.49 38.56 38.35 37.99 37.84 39.87 39.83 42.18 39.76 41.25 46.39 44.94 43.49 42.46 41.56 41.30 41.98 42.36 41.88 41.69 41.99 43.01
42.26 42.55 42.91 43.32 44.01 46.42 47.13 46.79 43.79 40.21 39.59 38.00 37.85 37.90 37.23 36.97 37.11 36.97 36.43 34.49 33.11 37.44 35.18 35.35 38.12 38.28 40.96 43.76 44.16 43.48 41.86 40.46 40.56 40.79 40.58 40.37 40.08 40.25
41.42 41.51 42.06 43.39 43.44 42.40 44.42 46.30 46.35 46.58 45.37 40.05 38.38 38.08 36.80 37.83 37.18 35.28 34.77 34.13 34.04 36.04 33.95 32.16 33.66 33.84 35.88 40.35 44.72 43.12 42.66 41.22 40.67 40.24 39.22 38.54 37.93 38.08
40.63 40.41 40.18 40.63 41.10 42.02 41.09 40.06 40.29 41.22 42.04 43.15 42.04 41.26 39.20 39.13 38.34 37.16 35.99 33.72 32.99 33.77 32.82 30.00 30.11 31.49 32.75 34.46 42.19 42.56 42.16 41.81 40.94 40.12 38.84 37.54 36.52 36.55
39.16 39.28 39.27 39.48 42.00 44.33 41.51 39.14 38.61 38.89 42.53 44.54 44.51 44.44 44.76 44.93 41.29 37.00 35.66 33.40 31.10 30.76 31.10 30.85 28.95 29.57 30.16 30.93 34.07 41.54 41.43 41.89 41.00 40.22 38.84 37.39 36.24 35.80
37.69 38.69 41.36 41.56 43.93 44.76 40.64 38.23 36.90 37.48 37.70 37.82 37.00 38.33 43.35 42.54 44.94 38.19 37.89 34.93 33.01 29.77 29.27 28.83 26.45 27.56 24.70 28.17 29.85 32.87 35.08 40.87 39.92 39.50 39.16 37.33 35.82 28.83
36.84 37.60 38.37 41.55 42.99 43.85 44.03 38.94 37.92 38.61 38.30 37.24 35.02 33.93 33.65 34.03 35.12 35.78 34.32 37.28 35.22 34.33 31.28 28.36 23.86 23.64 24.15 25.16 27.21 30.59 30.91 31.83 31.68 33.52 38.10 37.81 36.48 32.40
36.89 37.90 38.27 40.95 42.17 42.54 41.91 42.08 43.03 42.93 36.95 34.44 33.58 34.57 31.80 31.47 30.71 32.26 32.71 33.25 34.16 34.27 33.25 30.87 21.31 24.91 20.36 21.68 25.17 26.78 28.63 29.29 29.82 29.25 29.58 33.39 37.34 36.88
38.43 39.85 41.72 41.95 42.09 41.07 40.71 41.16 41.58 37.05 36.14 34.75 34.87 35.34 31.72 33.12 34.64 33.10 33.31 33.28 32.86 33.05 34.06 31.72 24.35 25.26 20.70 20.43 22.48 23.65 24.25 26.63 28.44 26.40 24.74 26.59 27.79 27.94
39.37 39.37 40.56 41.23 41.58 41.00 39.50 36.98 35.32 34.20 34.39 34.81 35.16 35.66 32.42 32.96 32.82 33.19 33.03 33.06 33.26 33.01 32.54 32.85 30.28 25.54 18.19 24.63 23.20 20.31 23.58 21.47 22.48 25.07 25.20 24.24 27.04 28.17
39.42 37.94 36.77 36.07 33.72 32.31 31.98 33.90 33.22 33.19 32.18 33.90 34.29 34.04 33.51 33.25 33.16 32.98 33.09 32.52 32.46 31.98 31.46 31.33 31.09 31.14 27.34 20.60 19.46 25.32 23.62 22.49 22.36 22.73 22.21 21.11 25.28 27.83
34.67 33.68 33.26 33.80 34.43 34.16 32.48 32.64 31.95 34.57 31.93 31.04 31.34 32.77 33.03 32.78 32.84 32.38 32.74 32.77 32.05 31.73 31.17 31.30 29.21 27.85 27.44 28.22 30.27 26.02 24.26 25.77 26.12 24.70 20.96 19.29 21.51 25.28
30.48 31.77 31.60 32.38 32.80 33.27 33.61 33.27 32.19 32.26 32.61 30.18 29.93 29.75 29.12 32.69 33.57 32.73 32.59 32.51 31.81 32.16 31.96 32.14 29.78 27.37 23.85 23.71 24.27 32.39 26.68 26.54 20.52 20.85 25.08 23.50 21.11 23.81
30.91 30.18 29.99 30.71 31.35 32.33 33.29 33.51 33.76 33.62 31.25 31.51 32.80 32.73 32.67 32.48 32.43 32.50 32.79 32.16 32.01 32.26 31.52 31.67 29.84 28.04 26.93 26.71 27.49 22.88 31.84 27.09 25.79 25.50 25.15 25.68 26.14 29.94
30.80 30.85 31.32 31.31 31.31 31.75 32.53 33.40 33.84 33.56 33.70 32.91 33.28 33.13 32.83 32.32 32.02 32.41 32.69 34.57 33.93 32.03 30.86 30.81 31.47 33.96 31.38 29.96 25.80 20.84 22.73 32.01 29.05 26.83 25.31 24.83 23.50 22.53
30.71 31.11 31.44 31.81 32.53 32.95 33.24 34.14 34.00 34.05 33.87 34.09 33.60 33.25 32.85 32.62 32.11 32.22 32.26 31.87 31.99 32.54 32.49 33.00 32.32 32.32 31.18 26.28 24.60 20.01 19.38 25.54 32.00 31.87 30.75 28.02 22.85 17.92
31.33 31.86 32.19 32.52 32.89 32.93 33.08 32.97 33.06 33.26 33.65 33.80 33.33 32.98 32.72 32.15 32.37 31.90 31.65 32.27 32.07 31.83 31.87 31.24 31.48 31.57 30.76 28.78 27.15 25.25 21.99 23.25 27.20 27.86 28.51 32.36 31.32 30.41
MSLP
1019.54 1019.47 1019.52 1019.46 1019.44 1019.27 1019.23 1019.23 1019.22 1018.93 1018.54 1018.07 1017.92 1017.53 1017.37 1017.07 1016.84 1016.42 1016.36 1016.04 1015.57 1015.13 1014.99 1014.77 1014.43 1014.00 1013.51 1012.93 1012.30 1011.89 1011.43 1011.31 1011.00 1010.87 1011.02 1010.83 1010.97 1010.98
1019.19 1019.21 1019.21 1019.08 1019.09 1019.01 1018.97 1018.90 1018.96 1019.03 1018.70 1018.10 1017.99 1017.74 1017.44 1017.03 1016.76 1016.38 1016.08 1016.12 1015.63 1015.21 1015.06 1015.08 1014.83 1014.59 1014.36 1014.01 1013.55 1013.25 1012.79 1012.31 1012.48 1012.12 1011.93 1012.17 1012.12 1011.85
1018.88 1018.91 1018.85 1018.78 1018.84 1018.80 1018.75 1018.69 1018.65 1018.67 1018.46 1017.93 1017.86 1017.70 1017.46 1017.07 1016.57 1016.16 1015.77 1015.92 1015.73 1015.43 1015.19 1015.06 1015.07 1014.87 1014.71 1014.67 1014.49 1014.27 1014.03 1013.60 1013.15 1012.83 1012.85 1013.03 1012.64 1012.54
1018.55 1018.56 1018.49 1018.38 1018.37 1018.34 1018.41 1018.48 1018.47 1018.21 1018.29 1018.09 1017.89 1017.70 1017.45 1017.00 1016.61 1016.09 1015.57 1015.44 1015.66 1015.52 1015.31 1015.22 1015.07 1014.99 1014.89 1014.68 1014.72 1014.65 1014.46 1014.10 1013.86 1013.70 1013.64 1013.39 1012.96 1013.18
1018.13 1018.23 1018.13 1018.07 1018.11 1018.06 1018.08 1018.13 1017.99 1017.81 1017.89 1018.00 1017.82 1017.58 1017.28 1016.87 1016.54 1016.16 1015.87 1015.45 1015.50 1015.54 1015.38 1015.30 1015.17 1015.03 1014.97 1014.97 1014.95 1014.98 1014.83 1014.72 1014.82 1014.60 1014.39 1013.99 1013.89 1014.03
1017.54 1017.54 1017.50 1017.56 1017.60 1017.54 1017.59 1017.65 1017.64 1017.73 1017.63 1017.62 1017.56 1017.45 1017.21 1016.78 1016.62 1016.54 1016.25 1015.99 1015.83 1015.45 1015.40 1015.36 1015.28 1015.10 1014.96 1015.01 1015.11 1015.14 1015.44 1015.34 1015.18 1015.30 1015.24 1015.19 1015.18 1015.09
1017.08 1017.04 1017.02 1016.91 1016.86 1016.85 1016.95 1016.98 1017.19 1017.33 1017.33 1017.36 1017.36 1017.20 1017.01 1016.89 1016.88 1016.54 1016.43 1016.23 1015.97 1015.76 1015.55 1015.34 1015.49 1015.33 1015.13 1015.18 1015.27 1015.32 1015.47 1015.68 1015.69 1015.64 1015.67 1015.77 1015.94 1015.63
1016.83 1016.59 1016.48 1016.45 1016.35 1016.25 1016.16 1016.14 1016.25 1016.58 1016.74 1016.92 1016.92 1016.85 1016.59 1016.53 1016.49 1016.41 1016.40 1016.60 1016.66 1015.90 1016.01 1015.85 1015.47 1015.39 1015.20 1015.12 1015.17 1015.25 1015.41 1015.58 1015.58 1015.78 1016.03 1016.13 1015.98 1016.02
1016.41 1016.30 1016.15 1015.99 1015.84 1015.71 1015.53 1015.46 1015.53 1015.59 1015.67 1015.94 1016.06 1016.02 1016.06 1015.91 1016.07 1016.08 1016.12 1016.28 1016.34 1015.93 1016.09 1015.96 1015.56 1015.50 1015.21 1015.09 1015.04 1015.12 1015.26 1015.56 1015.73 1015.91 1016.12 1016.27 1016.41 1016.56
1016.02 1015.94 1015.85 1015.58 1015.39 1015.29 1015.12 1015.04 1014.95 1014.85 1014.97 1015.10 1015.12 1015.07 1015.04 1015.09 1015.33 1015.48 1015.62 1015.82 1015.96 1015.85 1016.04 1016.21 1015.62 1015.44 1015.15 1015.04 1014.85 1014.96 1015.14 1015.36 1015.68 1015.89 1016.07 1016.25 1016.25 1016.23
1015.70 1015.49 1015.35 1015.09 1014.78 1014.61 1014.56 1014.58 1014.38 1014.26 1014.14 1014.07 1014.08 1014.04 1014.05 1014.03 1014.39 1015.01 1015.37 1015.85 1015.94 1015.89 1015.62 1015.81 1015.50 1015.51 1015.29 1015.04 1014.89 1014.74 1014.95 1015.06 1015.42 1015.76 1016.08 1016.34 1016.56 1016.69
1015.55 1015.27 1014.95 1014.59 1014.31 1014.13 1014.06 1014.07 1014.01 1013.82 1013.78 1013.70 1013.68 1013.46 1013.39 1013.45 1013.46 1013.97 1014.45 1015.07 1015.52 1015.81 1015.08 1015.58 1015.50 1015.60 1015.52 1015.09 1014.97 1014.86 1014.77 1014.89 1015.27 1015.51 1015.77 1016.15 1016.39 1016.84
1015.53 1015.24 1014.82 1014.48 1014.18 1013.91 1013.67 1013.55 1013.42 1013.28 1013.35 1013.39 1013.41 1013.36 1013.37 1013.36 1013.40 1013.55 1013.84 1014.08 1014.53 1014.79 1014.80 1015.00 1015.43 1015.72 1015.83 1015.69 1015.12 1014.93 1015.01 1015.21 1015.46 1015.52 1015.51 1015.74 1015.98 1016.33
1015.20 1014.89 1014.58 1014.23 1013.92 1013.68 1013.45 1013.22 1013.01 1012.89 1012.92 1013.16 1013.18 1013.12 1013.12 1013.13 1013.05 1013.22 1013.29 1013.44 1013.41 1013.63 1014.19 1014.60 1015.09 1015.33 1015.79 1015.91 1015.55 1014.97 1014.90 1015.00 1015.20 1015.50 1015.66 1015.65 1015.59 1015.72
1014.78 1014.39 1013.98 1013.65 1013.48 1013.22 1012.97 1012.78 1012.63 1012.57 1012.73 1012.81 1012.70 1012.53 1012.56 1012.21 1012.17 1012.60 1012.80 1013.05 1013.24 1013.36 1013.60 1014.00 1014.43 1014.85 1015.36 1015.44 1015.31 1014.95 1014.96 1014.62 1014.58 1014.83 1015.12 1015.39 1015.50 1015.64
1014.31 1013.97 1013.57 1013.23 1012.91 1012.52 1012.33 1012.21 1012.17 1012.18 1012.26 1012.24 1012.14 1011.91 1011.83 1011.88 1011.91 1011.86 1012.30 1012.59 1012.91 1012.90 1013.03 1013.33 1013.91 1014.30 1014.62 1014.72 1014.76 1014.72 1014.68 1014.65 1014.21 1014.35 1014.58 1014.88 1014.84 1014.98
1014.11 1013.55 1013.21 1013.07 1012.69 1012.31 1012.11 1011.80 1011.62 1011.55 1011.56 1011.50 1011.47 1011.46 1011.36 1011.31 1011.39 1011.34 1011.50 1011.85 1012.09 1012.15 1012.56 1012.94 1013.22 1013.57 1013.86 1014.19 1014.31 1013.99 1014.13 1014.10 1013.76 1013.98 1014.51 1014.73 1014.46 1014.43
1013.80 1013.38 1013.09 1012.86 1012.58 1012.14 1011.78 1011.54 1011.37 1011.15 1010.89 1010.90 1010.83 1010.78 1010.75 1010.76 1010.83 1010.95 1010.99 1011.12 1011.23 1011.36 1011.65 1012.03 1012.59 1013.20 1013.47 1013.16 1013.04 1013.06 1013.22 1013.13 1013.04 1013.39 1013.69 1014.17 1014.11 1013.95
1013.65 1013.25 1012.99 1012.70 1012.30 1011.83 1011.44 1011.19 1010.87 1010.57 1010.22 1010.25 1010.10 1010.02 1010.09 1010.14 1010.32 1010.35 1010.29 1010.31 1010.37 1010.51 1010.67 1011.08 1011.53 1011.99 1012.34 1011.93 1011.37 1011.46 1011.82 1012.07 1012.73 1012.94 1013.06 1013.36 1013.30 1013.30
1013.34 1013.05 1012.73 1012.39 1011.92 1011.46 1010.91 1010.45 1010.07 1009.79 1009.66 1009.46 1009.30 1009.23 1009.19 1009.21 1009.43 1009.51 1009.52 1009.48 1009.54 1009.58 1009.76 1010.03 1010.31 1010.67 1010.80 1010.53 1010.53 1010.56 1010.59 1011.13 1011.53 1011.73 1012.08 1012.42 1012.53 1012.73
1012.40 1012.07 1011.80 1011.40 1010.96 1010.53 1010.09 1009.62 1009.20 1008.90 1008.68 1008.53 1008.31 1008.27 1008.33 1008.56 1008.61 1008.58 1008.56 1008.57 1008.60 1008.68 1008.70 1008.82 1008.80 1008.88 1009.49 1010.01 1010.24 1010.43 1010.05 1010.06 1010.41 1010.80 1011.23 1011.90 1012.29 1012.45
1011.73 1011.15 1010.74 1010.46 1010.15 1009.85 1009.44 1009.04 1008.57 1008.17 1007.80 1007.58 1007.38 1007.30 1007.28 1007.44 1007.64 1007.74 1007.77 1007.74 1007.67 1007.63 1007.60 1007.77 1007.94 1008.36 1008.72 1009.13 1009.30 1009.66 1009.68 1009.56 1009.76 1010.19 1010.50 1010.65 1011.30 1011.56
1010.95 1010.42 1009.94 1009.63 1009.26 1008.90 1008.66 1008.27 1007.84 1007.39 1007.04 1006.70 1006.58 1006.42 1006.46 1006.57 1006.78 1006.92 1006.98 1006.91 1006.86 1006.85 1006.91 1007.11 1007.36 1007.63 1007.75 1008.01 1008.35 1008.83 1009.17 1009.23 1009.39 1009.64 1009.91 1010.20 1010.62 1010.78
Wind_Speed
5 5 4 3 3 3 3 3 2 3 5 3 2 3 3 3 5 4 1 4 7 11 13 15 16 18 20 22 23 22 20 18 19 20 19 17 16 16
4 5 5 3 4 3 3 3 3 3 4 1 3 3 5 5 5 6 2 2 3 7 9 10 12 14 16 17 18 19 20 19 17 17 17 14 13 15
5 5 6 5 4 4 3 4 3 4 6 6 3 3 4 6 4 5 4 4 1 4 7 10 7 8 10 13 14 15 14 14 14 14 13 11 12 12
6 6 6 4 6 6 4 5 5 5 5 8 3 3 3 5 5 5 4 1 2 2 4 7 8 5 6 9 11 13 13 12 12 12 11 11 11 10
6 6 6 6 6 4 5 5 4 5 4 4 5 2 3 2 3 3 5 1 2 2 2 4 8 7 2 7 10 11 11 9 9 10 10 11 10 9
6 6 6 6 6 6 5 6 5 5 4 4 4 3 3 4 1 1 3 2 3 2 2 3 3 8 3 4 8 11 7 7 7 8 9 10 9 9
6 6 6 7 10 9 5 5 4 3 3 3 3 2 2 2 3 2 2 2 3 2 2 2 1 3 2 3 4 7 5 3 4 7 7 7 6 8
6 6 6 8 9 12 13 13 9 5 6 4 4 5 5 3 2 3 3 1 3 1 1 3 1 3 3 3 7 4 6 2 1 3 4 5 6 6
6 5 6 6 8 7 10 13 12 14 13 6 8 7 4 5 3 2 4 4 4 2 1 4 1 3 3 4 10 7 7 8 7 5 4 4 3 3
6 6 7 9 7 8 7 7 7 7 7 7 9 9 7 6 6 5 5 4 1 3 3 4 1 3 1 2 7 9 9 11 9 8 6 4 2 2
5 6 6 8 11 14 8 7 7 6 7 13 13 14 15 15 10 4 3 2 3 3 3 3 2 2 2 2 4 9 10 13 12 11 9 8 6 4
5 6 10 9 12 12 6 6 7 6 5 6 5 6 12 10 14 8 6 6 3 2 3 4 2 2 3 1 2 3 3 11 10 11 11 9 7 2
4 5 4 12 13 11 10 5 7 5 7 5 5 4 4 4 4 5 6 6 6 7 3 4 2 1 1 3 2 3 3 3 3 4 11 11 10 7
5 4 6 12 12 12 10 12 14 12 3 4 4 6 4 4 4 5 6 6 5 7 4 4 3 4 3 1 2 1 3 3 4 4 4 7 12 11
5 8 14 13 12 10 13 13 12 4 4 4 6 7 4 5 4 3 4 5 5 5 5 4 4 4 3 4 3 3 1 3 4 4 3 4 4 4
8 7 12 14 15 12 8 6 4 4 4 5 5 5 3 2 3 4 3 4 4 3 4 6 5 4 3 4 3 3 3 3 1 3 2 2 3 4
13 8 9 8 6 4 4 5 4 4 4 4 4 4 4 3 4 3 4 4 6 5 4 4 5 6 4 4 4 5 4 4 3 3 3 2 3 4
8 8 9 9 9 8 6 7 5 8 5 4 4 4 4 4 4 3 3 6 7 7 7 5 5 3 3 6 16 8 5 8 6 5 2 4 4 3
4 6 7 7 8 8 8 7 8 6 6 4 4 4 4 4 5 5 6 6 7 7 7 7 7 6 7 7 3 24 10 7 3 3 6 6 4 3
7 8 9 9 8 8 8 7 7 7 6 6 6 6 6 5 5 6 6 8 8 7 7 6 7 9 9 9 4 3 20 7 7 8 6 3 3 6
7 8 8 8 8 8 8 9 8 7 8 7 7 7 7 6 6 7 7 12 12 8 9 8 11 21 7 2 3 2 3 21 10 7 4 4 3 3
8 8 8 8 7 8 8 8 8 9 8 8 8 7 7 7 7 7 7 8 8 8 7 7 4 6 7 8 8 4 2 1 18 15 13 10 5 5
9 9 8 8 8 8 8 9 9 9 9 8 7 7 6 6 6 7 8 8 8 7 7 6 4 5 8 8 11 6 6 5 5 9 7 17 12 8
Wind_Direction
260 249 224 239 262 252 260 248 255 298 301 280 315 3 348 11 328 348 95 16 14 23 19 9 22 35 35 37 42 50 59 62 68 70 70 72 74 77
255 246 237 225 235 251 256 244 237 251 265 316 294 314 329 339 300 312 293 160 35 36 18 14 27 38 42 41 43 42 45 55 61 68 70 68 74 82
269 254 252 231 233 236 249 267 239 242 266 278 290 288 300 304 311 313 295 199 107 40 23 357 19 46 49 50 47 46 48 52 51 58 64 63 72 82
259 266 260 250 235 220 219 231 236 250 254 273 256 272 271 289 294 308 300 208 172 106 50 1 2 5 47 57 53 44 41 47 50 55 62 64 75 92
250 255 260 263 261 240 233 234 233 241 238 237 270 252 261 274 302 336 324 260 244 231 167 6 343 348 61 79 79 56 47 60 67 67 64 61 67 70
245 243 248 247 245 246 242 238 241 247 249 244 253 249 241 274 194 270 320 338 325 289 251 203 319 315 236 98 97 92 57 61 83 90 87 77 74 73
255 256 257 246 238 236 232 237 221 229 245 253 258 247 247 264 236 238 248 278 302 253 303 295 254 281 168 148 124 107 74 70 99 105 100 96 96 93
260 265 263 270 267 259 254 236 213 220 246 230 249 249 250 224 228 226 208 183 308 334 28 299 270 250 245 191 210 209 149 162 113 100 109 102 88 90
261 267 280 275 266 260 264 261 244 233 222 214 235 233 225 213 201 236 210 191 211 268 106 272 242 248 246 247 217 187 196 185 188 172 160 136 120 117
264 262 263 275 261 264 258 255 243 237 229 231 229 238 227 218 199 195 209 203 258 263 155 259 256 252 274 234 222 203 202 201 201 189 181 171 123 73
276 271 265 270 268 270 263 253 254 249 243 243 236 232 239 234 208 154 194 167 252 258 221 191 234 247 237 242 234 216 214 211 204 197 192 186 189 197
292 286 285 283 285 275 262 257 263 258 248 268 277 273 253 240 219 205 184 209 171 300 239 175 193 164 319 259 252 240 196 197 203 207 204 204 202 143
299 302 295 308 313 318 307 259 244 252 259 258 263 266 265 238 227 206 191 205 215 233 238 146 169 106 160 288 286 206 172 200 186 223 219 213 213 182
289 282 283 299 300 301 301 283 283 276 247 245 258 267 244 242 237 221 209 209 207 210 192 182 185 164 163 305 252 290 218 211 187 198 203 233 234 228
279 285 286 284 287 296 293 293 294 262 247 249 254 265 233 226 210 192 206 215 216 218 200 187 165 166 157 199 220 223 157 242 199 191 187 193 193 192
297 295 293 288 279 268 282 280 260 242 235 245 253 251 242 228 206 170 177 183 215 219 195 185 190 170 198 224 181 224 211 221 202 202 189 202 212 205
316 304 302 296 293 277 267 262 254 248 231 225 231 240 238 227 231 188 185 177 211 212 202 185 184 205 211 178 232 223 220 236 208 182 143 220 230 212
309 301 300 299 295 297 293 288 263 266 239 226 232 230 226 218 220 206 197 207 220 219 219 198 173 183 201 236 219 235 223 230 223 189 160 169 243 218
310 313 308 301 298 295 290 281 282 265 246 228 225 218 209 209 246 224 218 219 227 226 216 202 192 194 211 235 262 210 223 219 162 185 197 195 200 202
299 296 296 295 294 292 287 280 276 266 250 242 232 227 223 207 211 226 230 228 231 228 225 207 199 201 215 226 211 250 206 200 196 214 204 197 219 228
281 285 278 276 276 275 275 273 265 261 260 247 233 224 218 214 229 231 230 230 230 226 231 223 215 215 224 114 218 251 264 217 201 196 171 180 170 195
273 275 277 274 273 279 284 283 281 275 266 253 238 225 214 210 227 233 234 239 234 235 236 235 206 205 208 208 231 214 223 224 212 218 193 165 166 204
283 282 280 275 273 274 278 279 276 274 272 259 242 230 218 221 223 237 248 241 234 229 228 224 202 206 222 209 220 221 183 189 193 204 213 210 207 142